Погода в Больших Леушах

Россия / Ханты-Мансийский автономный округ - Югра     62°11′03″N   67°11′05″E
темп.,
°C
ветер,
м/с
пор.,
м/с
влажн.,
%
обл.,
%
осадки,
мм/ч
давл.,
гПа
погр.,
м
25 января, вт
вт2523:00−13ю139985 0.4 102454
02:00−17ю11100100 0.1 10239
05:00−20ю11100100 0.1 102215
08:00−21ю11100100 0.0 102134
11:00−18ю2410098 0.0 102082
14:00−15ю259656 0.0 1020155
17:00−20ююв2210071 0.0 102034
20:00−18ю29100100 0.0 1020150
26 января, ср
ср2623:00−17ю39100100 0.1 1019183
02:00−14ю31095100 0.2 1019223
05:00−12ю3109698 0.5 1018241
08:00−12ю31097100 0.1 1018263
11:00−13ююз389655 0.1 1019206
14:00−13ююз279156 0.0 1019174
17:00−15ююз2897100 0.0 1020136
20:00−15ююз279697 0.0 1020120
27 января, чт
чт2723:00−18ю2698100 0.0 102084
02:00−18ю2699100 0.0 102090
05:00−19ю25100100 0.0 102080
08:00−19ю2599100 0.0 102098
11:00−15ююз2998100 0.0 1019195
14:00−12ю2892100 0.0 1017253
17:00−15ююв2598100 0.0 1017100
20:00−12ююз3895100 0.2 1017334
28 января, пт
пт2823:00−13ююз3796100 0.4 1017255
02:00−13ююз279799 0.1 1018207
05:00−16ююз1310099 0.1 101960
08:00−16ююз1310092 0.0 102059
11:00−15ююз139879 0.1 102071
14:00−13юз139552 0.0 1021109
17:00−20ю1110087 0.0 102310
20:00−20ююз11100100 0.0 102310
29 января, сб
сб2923:00−22ю1110095 0.0 102410
02:00−23ююв1110096 0.0 102410
05:00−24ю1110097 0.0 102416
08:00−22ююв1110090 0.0 102321
11:00−17ю2599100 0.0 1023109
14:00−13ю259682 0.0 1022156
17:00−18юв1110092 0.1 102210
20:00−15вюв129886 0.1 102047